FW6247 Weather Reports


Display with metric or nautical units.
time (UTC)temp
F
wind
direction
speed
MPH
gust
MPH
rain 1hr
in
rain 24hr
in
rain mn
in
humidity
%
barometer
mb
20260906034537 55 165 1.0 4.0 0.00 0.00 0.00 74 1018.4
20260906033037 55 229 0.0 3.0 0.00 0.00 0.00 72 1018.3
20260906031536 56 209 0.0 4.0 0.00 0.00 0.00 69 1018.1
20260906030035 57 285 1.0 4.0 0.00 0.00 0.00 66 1018.1
20260906024538 58 284 2.0 5.0 0.00 0.00 0.00 64 1018.0
20260906023037 60 294 2.0 5.0 0.00 0.00 0.00 61 1017.8
20260906014529 64 318 2.0 9.0 0.00 0.00 0.00 56 1017.8
20260906011531 66 295 5.0 12.0 0.00 0.00 0.00 53 1017.9
20260906010125 67 286 7.0 14.0 0.00 0.00 0.00 52 1018.0
20260906004624 69 292 7.0 19.0 0.00 0.00 0.00 48 1017.8
20260906003041 71 298 6.0 16.0 0.00 0.00 0.00 43 1017.7
20260906001539 72 319 3.0 12.0 0.00 0.00 0.00 43 1017.6
20260906000030 72 332 2.0 9.0 0.00 0.00 0.00 44 1017.4
20260905234530 69 337 1.0 10.0 0.00 0.00 0.00 48 1017.5
20260905231607 68 333 0.0 6.0 0.00 0.00 0.00 48 1017.7
20260905230108 70 331 1.0 7.0 0.00 0.00 0.00 47 1017.8
20260905224534 69 20 1.0 6.0 0.00 0.01 0.00 49 1017.8
20260905221536 68 12 2.0 8.0 0.00 0.02 0.00 51 1018.1
20260905220032 68 25 1.0 5.0 0.00 0.02 0.00 52 1018.2
20260905214611 67 36 2.0 7.0 0.00 0.02 0.00 54 1018.5
20260905210038 66 70 0.0 5.0 0.00 0.02 0.00 57 1018.8
20260905204538 65 344 0.0 4.0 0.00 0.02 0.00 58 1018.8
20260905203037 66 67 1.0 6.0 0.00 0.02 0.00 56 1019.0
20260905194532 66 344 1.0 7.0 0.00 0.02 0.00 61 1019.2
20260905193036 65 351 1.0 8.0 0.00 0.02 0.00 64 1019.3
20260905191538 64 337 1.0 6.0 0.00 0.02 0.00 67 1019.5
20260905190038 62 342 0.0 5.0 0.00 0.02 0.00 68 1019.8
20260905184536 61 331 1.0 5.0 0.00 0.02 0.00 69 1019.9
20260905183040 60 9 0.0 4.0 0.00 0.02 0.00 70 1020.0
20260905181537 59 11 1.0 4.0 0.00 0.02 0.00 72 1020.1
20260905180037 59 23 1.0 4.0 0.00 0.02 0.00 72 1020.1
20260905174610 59 46 1.0 5.0 0.00 0.02 0.00 72 1020.0
20260905173036 60 18 0.0 4.0 0.00 0.02 0.00 73 1020.1
20260905171607 60 360 0.0 3.0 0.00 0.02 0.00 76 1020.0
20260905164536 56 41 0.0 3.0 0.00 0.02 0.00 81 1020.0
20260905163039 56 114 0.0 0.0 0.00 0.02 0.00 83 1019.9
20260905161534 56 157 0.0 0.0 0.00 0.02 0.00 83 1019.9
20260905160031 55 163 0.0 2.0 0.00 0.02 0.00 85 1019.9
20260905153037 52 183 0.0 3.0 0.00 0.02 0.00 89 1019.8
20260905151537 50 179 1.0 3.0 0.00 0.02 0.00 89 1019.8
20260905150037 50 171 3.0 5.0 0.00 0.02 0.00 90 1019.8
20260905144538 49 162 3.0 5.0 0.00 0.02 0.00 90 1019.8
20260905143036 48 168 3.0 6.0 0.00 0.02 0.00 91 1019.7
20260905141538 48 165 3.0 7.0 0.00 0.02 0.00 91 1019.6
20260905140036 47 165 3.0 5.0 0.00 0.02 0.00 91 1019.4
20260905134536 46 160 2.0 5.0 0.00 0.02 0.00 90 1019.3
20260905133038 47 158 0.0 6.0 0.00 0.02 0.00 90 1019.1
20260905131538 47 161 3.0 5.0 0.00 0.02 0.00 90 1019.0
20260905130040 47 164 3.0 5.0 0.00 0.02 0.00 90 1018.9
20260905124538 47 167 3.0 5.0 0.00 0.02 0.00 89 1018.9
20260905123037 47 159 3.0 5.0 0.00 0.02 0.00 89 1018.9
20260905121537 47 158 4.0 6.0 0.00 0.02 0.00 88 1018.9
20260905120038 48 167 2.0 5.0 0.00 0.02 0.00 88 1018.9
20260905114537 49 160 3.0 5.0 0.00 0.02 0.00 87 1018.9
20260905111538 50 192 0.0 4.0 0.00 0.02 0.00 88 1018.8
20260905110037 50 159 2.0 5.0 0.00 0.02 0.00 88 1018.8
20260905103051 50 160 0.0 3.0 0.00 0.02 0.00 86 1018.7
20260905101536 51 187 0.0 2.0 0.00 0.02 0.00 86 1018.8
20260905100037 51 167 2.0 5.0 0.00 0.02 0.00 86 1018.8
20260905094536 51 171 3.0 5.0 0.00 0.02 0.00 86 1018.8
20260905093038 51 157 1.0 4.0 0.00 0.02 0.00 86 1018.8
20260905091536 51 163 3.0 5.0 0.00 0.02 0.00 86 1018.7
20260905090037 51 170 4.0 6.0 0.00 0.02 0.00 86 1018.6
20260905084536 51 174 4.0 5.0 0.00 0.02 0.00 86 1018.6
20260905083037 51 167 3.0 5.0 0.00 0.02 0.00 86 1018.6
20260905081536 50 162 3.0 5.0 0.00 0.02 0.00 87 1018.6
20260905080037 50 153 2.0 5.0 0.00 0.02 0.00 87 1018.4
20260905074537 50 166 1.0 4.0 0.00 0.02 0.00 87 1018.3
20260905073038 50 157 0.0 0.0 0.00 0.02 0.00 87 1018.3
20260905071538 50 188 1.0 3.0 0.00 0.02 0.00 87 1018.1
20260905070036 50 157 1.0 3.0 0.00 0.02 0.00 86 1017.9
20260905064537 50 176 2.0 4.0 0.00 0.02 0.02 85 1017.8
20260905060038 51 169 2.0 4.0 0.00 0.02 0.02 82 1017.7
20260905053037 53 163 3.0 5.0 0.00 0.02 0.02 81 1017.7
20260905050036 53 180 4.0 6.0 0.00 0.02 0.02 81 1017.5
20260905044537 53 178 4.0 6.0 0.00 0.02 0.02 79 1017.5
20260905043037 55 204 3.0 5.0 0.00 0.02 0.02 77 1017.5
20260905041539 56 31 0.0 4.0 0.00 0.02 0.02 77 1017.5